Temp
9 9 9 8 8 8 8 8 8 8 8 8 8 8 8 7 7 7 7 7 7 7 7 7 7 6 6 6 6 6 5 5 5 5 5 5 5 4 4 4 4 4 4 3 3 3 3 3 2 2 2 2 2 1 1 1 1 0 0 -0 -0 -1 -1 -1 -1 -1 -1 -2 -2
9 9 8 8 8 8 8 8 8 8 8 8 8 7 7 7 7 7 7 7 7 7 7 6 6 6 6 6 6 5 5 5 5 5 5 4 4 4 4 4 4 3 3 3 3 3 3 2 2 2 2 2 1 1 1 1 1 0 -0 -0 -0 -1 -1 -1 -1 -1 -2 -2 -2
9 8 8 8 8 8 8 8 8 8 8 7 7 7 7 7 7 7 7 7 7 7 7 7 7 6 6 6 5 5 5 5 5 5 4 4 4 4 4 4 3 3 3 3 3 3 2 2 2 2 1 1 1 1 1 1 1 0 -0 -0 -1 -1 -1 -1 -1 -2 -2 -2 -2
8 8 8 8 8 8 8 8 8 8 8 8 7 7 7 7 7 7 7 7 7 7 7 7 7 6 6 6 5 5 5 5 5 4 4 4 4 4 4 3 3 3 3 3 3 2 2 2 2 1 1 1 1 1 1 1 0 0 -0 -0 -1 -1 -1 -1 -1 -2 -2 -2 -2
9 8 8 8 8 8 8 8 8 8 8 8 8 8 8 8 8 8 8 8 8 8 8 7 7 7 6 6 6 5 5 5 5 4 4 4 4 4 4 3 3 3 3 3 3 2 2 2 2 1 1 1 1 1 1 1 0 -0 -0 -0 -1 -1 -1 -1 -2 -2 -2 -2 -2
9 9 9 9 8 8 8 8 8 8 8 8 8 8 8 8 8 8 8 8 8 8 8 7 7 7 7 6 6 6 5 5 5 4 4 4 4 4 3 3 3 3 3 3 2 2 2 2 1 1 1 1 1 1 1 0 -0 -0 -1 -1 -1 -1 -1 -2 -2 -2 -2 -2 -2
9 9 9 9 9 8 8 8 8 8 8 8 8 8 8 8 8 8 8 8 8 8 8 7 7 7 7 7 6 6 6 5 5 5 5 4 4 4 3 3 3 3 3 2 2 2 2 1 1 1 1 1 1 1 0 0 -0 -1 -1 -1 -1 -1 -1 -2 -2 -2 -2 -2 -3
9 9 9 9 9 8 8 8 8 8 8 8 8 8 8 8 8 8 8 8 8 8 8 7 7 7 7 7 6 6 6 6 5 5 5 5 4 4 4 3 3 3 2 2 2 2 2 1 1 1 1 1 1 0 0 -0 -0 -1 -1 -1 -1 -1 -2 -2 -2 -2 -2 -3 -3
9 9 8 8 8 8 8 8 8 8 8 8 8 8 8 8 8 8 8 8 8 8 8 8 8 8 7 7 7 7 6 6 5 5 5 5 4 4 4 4 3 3 2 2 2 2 1 1 1 1 1 1 1 0 -0 -0 -0 -1 -1 -1 -1 -1 -2 -2 -2 -2 -2 -3 -3
8 8 8 8 8 8 8 8 8 8 8 8 8 8 8 8 8 8 8 8 8 8 8 8 8 8 7 7 7 7 7 6 6 5 5 5 5 4 4 4 3 3 3 2 2 2 1 1 1 1 1 1 0 0 -0 -0 -1 -1 -1 -1 -1 -1 -2 -2 -2 -2 -3 -3 -3
8 8 8 8 8 8 8 8 8 8 8 8 8 8 8 8 8 8 8 8 8 8 8 8 8 8 7 7 7 7 7 6 6 5 5 5 5 5 4 4 4 3 3 2 2 1 1 1 1 1 1 1 0 0 -0 -0 -1 -1 -1 -1 -1 -2 -2 -2 -2 -2 -3 -3 -3
8 8 8 8 8 8 8 8 8 8 8 8 8 8 8 8 8 8 8 8 8 8 8 8 8 8 7 7 7 7 7 6 6 6 5 5 5 5 4 4 4 3 3 2 2 1 1 1 1 1 1 1 0 0 -0 -0 -1 -1 -1 -1 -1 -2 -2 -2 -2 -3 -3 -3 -3
8 8 8 8 8 8 8 8 8 8 8 8 8 8 8 8 8 8 8 8 8 8 8 8 8 8 7 7 7 7 7 6 6 5 5 5 5 5 4 4 4 4 3 3 2 2 1 1 1 1 1 1 0 0 -0 -0 -1 -1 -1 -1 -1 -2 -2 -2 -2 -3 -3 -3 -3
8 8 8 8 8 8 8 8 8 8 8 8 8 8 8 8 8 8 8 8 8 8 8 8 8 8 8 7 7 6 6 6 5 5 5 5 5 4 4 4 4 3 3 3 2 2 1 1 1 1 1 0 0 -0 -0 -1 -1 -1 -1 -1 -1 -2 -2 -2 -2 -3 -3 -3 -3
8 8 8 8 8 8 8 8 8 8 8 8 8 8 8 8 8 8 8 8 8 8 8 8 8 8 8 7 7 6 6 5 5 4 4 4 4 4 4 4 4 3 3 3 2 2 2 1 1 1 1 0 0 -0 -0 -1 -1 -1 -1 -1 -1 -2 -2 -2 -2 -3 -3 -3 -3
8 8 8 8 8 8 8 8 8 8 8 8 8 8 8 8 8 8 8 8 8 8 8 8 8 8 7 7 6 6 5 5 4 4 4 4 4 4 4 3 3 3 3 3 2 2 2 2 1 1 1 0 0 -0 -0 -1 -1 -1 -1 -1 -2 -2 -2 -2 -2 -3 -3 -3 -3
8 8 8 8 8 8 8 8 8 8 8 8 8 8 8 8 8 8 8 8 8 8 8 7 7 7 7 7 6 5 5 4 4 3 3 3 3 3 3 3 3 3 3 2 2 2 2 2 1 1 1 0 0 -0 -0 -1 -1 -1 -1 -2 -2 -2 -2 -2 -3 -3 -3 -3 -3
8 8 8 8 7 7 7 7 7 7 7 7 7 7 7 7 7 7 8 8 7 7 7 7 7 7 6 6 6 5 4 4 3 3 3 3 3 3 3 2 2 2 2 2 2 2 2 1 1 1 0 0 -0 -0 -1 -1 -1 -1 -2 -2 -2 -2 -2 -3 -3 -3 -3 -3 -3
8 8 7 7 7 7 7 7 7 7 7 7 7 7 7 7 7 7 7 7 7 7 7 7 7 6 6 6 5 5 4 4 3 3 3 2 2 2 2 2 2 2 2 2 1 1 1 1 1 1 0 -0 -0 -1 -1 -1 -1 -1 -2 -2 -2 -2 -3 -3 -3 -3 -4 -4 -4
7 7 7 7 7 7 7 7 7 7 7 7 7 7 7 7 7 7 7 7 7 7 7 7 6 6 6 5 5 5 4 4 3 2 2 2 2 2 2 2 1 1 1 1 1 1 1 1 1 0 -0 -0 -1 -1 -1 -1 -1 -2 -2 -2 -2 -2 -3 -3 -3 -4 -4 -4 -4
7 7 7 7 7 7 7 7 7 7 7 7 7 7 7 7 7 7 7 7 7 7 7 6 6 6 5 5 5 4 4 3 3 2 2 2 1 1 1 1 1 1 1 1 1 1 1 1 0 0 -0 -1 -1 -1 -1 -1 -2 -2 -2 -2 -2 -3 -3 -3 -3 -4 -4 -4 -4
7 7 7 7 7 7 7 7 7 7 7 7 7 7 7 7 7 7 7 7 7 7 6 6 6 5 5 5 4 4 4 3 3 2 2 2 1 1 1 1 1 0 0 0 0 0 0 0 0 -0 -1 -1 -1 -1 -1 -2 -2 -2 -2 -2 -3 -3 -3 -3 -4 -4 -4 -4 -5
7 7 7 7 7 7 7 7 7 7 7 7 7 7 7 7 7 7 7 7 6 6 6 6 5 5 5 4 4 4 3 3 3 2 2 1 1 1 1 0 0 0 0 0 0 0 0 -0 -0 -1 -1 -1 -1 -1 -1 -2 -2 -2 -2 -3 -3 -3 -3 -3 -4 -4 -4 -4 -5
7 7 7 6 6 6 7 7 7 7 7 7 7 7 7 7 7 7 7 6 6 6 6 5 5 4 4 4 4 3 3 3 2 2 2 1 1 1 0 0 0 -0 -0 -0 -0 -0 -0 -1 -1 -1 -1 -1 -1 -2 -2 -2 -2 -2 -3 -3 -3 -3 -3 -4 -4 -4 -4 -5 -5
6 6 6 6 6 6 6 7 7 7 7 7 7 7 7 7 6 6 6 6 6 6 5 5 4 4 4 3 3 3 3 2 2 2 1 1 1 1 0 0 -0 -0 -0 -0 -0 -1 -1 -1 -1 -1 -1 -1 -2 -2 -2 -2 -2 -3 -3 -3 -3 -3 -4 -4 -4 -4 -4 -5 -5
6 6 6 6 6 6 6 6 7 7 7 7 7 6 6 6 6 6 6 6 5 5 5 4 4 4 3 3 3 3 2 2 2 2 1 1 1 0 0 -0 -0 -0 -0 -0 -1 -1 -1 -1 -1 -2 -2 -2 -2 -2 -2 -2 -3 -3 -3 -3 -3 -4 -4 -4 -4 -4 -4 -5 -5
6 6 6 6 6 6 6 6 6 7 7 7 6 6 6 6 6 6 6 5 5 5 4 4 3 3 3 3 2 2 2 2 2 1 1 1 0 0 -0 -0 -0 -0 -0 -1 -1 -1 -1 -2 -2 -2 -3 -3 -3 -3 -3 -3 -3 -3 -3 -4 -4 -4 -4 -4 -4 -4 -5 -5 -5
6 6 6 6 6 6 6 6 6 6 6 6 6 6 6 6 6 6 5 5 4 4 4 3 3 3 2 2 2 2 2 2 2 1 1 1 0 0 -0 -0 -0 -0 -0 -1 -1 -1 -1 -2 -2 -3 -3 -4 -4 -3 -3 -3 -4 -4 -4 -4 -4 -4 -4 -4 -4 -5 -5 -5 -5
6 6 6 6 6 6 6 6 6 6 6 6 6 6 6 6 6 5 5 5 4 4 3 3 3 2 2 2 2 2 2 2 1 1 1 0 0 0 -0 -0 -0 -0 -1 -1 -1 -1 -2 -2 -2 -3 -3 -4 -4 -4 -4 -4 -4 -4 -4 -4 -4 -4 -4 -5 -5 -5 -5 -5 -6
6 6 6 6 6 6 6 6 6 6 6 6 6 6 6 6 5 5 5 4 4 3 3 2 2 2 2 2 2 1 1 1 1 1 1 0 0 0 -0 -0 -0 -1 -1 -1 -1 -2 -2 -2 -3 -3 -3 -4 -4 -4 -4 -4 -4 -4 -5 -5 -5 -5 -5 -5 -5 -5 -5 -5 -6
6 6 6 6 6 6 6 6 6 6 6 6 6 5 5 5 5 5 4 4 3 3 2 2 2 2 2 1 1 1 1 1 1 1 0 0 0 0 -0 -0 -1 -1 -1 -1 -1 -2 -2 -2 -3 -3 -3 -4 -4 -4 -4 -4 -4 -5 -5 -5 -5 -5 -5 -5 -5 -5 -5 -5 -6
6 6 6 5 6 6 6 6 6 6 6 5 5 5 5 5 5 4 4 3 3 2 2 2 2 1 1 1 1 1 1 1 0 0 0 0 -0 -0 -0 -1 -1 -1 -1 -1 -1 -2 -2 -2 -3 -3 -3 -4 -4 -4 -4 -4 -4 -4 -5 -5 -5 -5 -5 -5 -5 -5 -5 -6 -6
5 5 5 5 5 5 5 5 5 5 5 5 5 5 5 4 4 3 3 3 2 2 2 2 1 1 1 1 1 1 0 0 0 0 -0 -0 -0 -0 -1 -1 -1 -1 -1 -1 -1 -2 -2 -2 -3 -3 -3 -4 -4 -4 -4 -4 -4 -4 -5 -5 -5 -5 -5 -5 -5 -5 -6 -6 -6
5 5 5 5 5 5 5 5 5 5 5 5 4 4 4 3 3 3 3 2 2 2 2 1 1 1 1 1 0 0 0 0 -0 -0 -0 -1 -1 -1 -1 -1 -1 -1 -1 -1 -1 -2 -2 -2 -3 -3 -3 -4 -4 -4 -4 -4 -4 -4 -4 -5 -5 -5 -5 -5 -5 -5 -5 -6 -6
5 5 5 5 5 5 5 5 5 4 4 4 4 3 3 3 3 2 2 2 2 2 1 1 1 1 0 0 0 0 -0 -0 -0 -1 -1 -1 -1 -1 -1 -1 -1 -1 -1 -1 -2 -2 -2 -2 -3 -3 -3 -4 -4 -4 -4 -4 -4 -4 -5 -5 -5 -5 -5 -5 -5 -5 -5 -6 -6
5 5 4 4 4 4 4 4 4 4 3 3 3 3 3 2 2 2 2 1 1 1 1 1 1 0 0 0 -0 -0 -0 -0 -1 -1 -1 -1 -1 -1 -1 -1 -1 -1 -1 -2 -2 -2 -2 -2 -3 -3 -3 -4 -4 -4 -4 -4 -5 -5 -5 -5 -5 -5 -5 -5 -5 -5 -5 -6 -6
4 4 4 4 4 4 4 4 3 3 3 3 3 2 2 2 2 1 1 1 1 1 1 1 0 0 0 -0 -0 -0 -1 -1 -1 -1 -1 -1 -1 -1 -1 -1 -1 -1 -2 -2 -2 -2 -2 -3 -3 -3 -4 -4 -4 -4 -4 -4 -5 -5 -5 -5 -5 -5 -5 -5 -5 -5 -5 -5 -6
4 4 4 3 3 3 3 3 3 3 2 2 2 2 2 1 1 1 1 1 1 1 0 0 0 -0 -0 -0 -0 -1 -1 -1 -1 -1 -1 -1 -1 -1 -1 -1 -1 -2 -2 -2 -2 -2 -2 -3 -3 -3 -4 -4 -4 -4 -4 -5 -5 -5 -5 -5 -5 -5 -5 -5 -5 -5 -5 -5 -6
3 3 3 3 3 3 3 3 2 2 2 2 2 1 1 1 1 1 1 0 0 0 0 0 -0 -0 -0 -1 -1 -1 -1 -1 -1 -1 -1 -1 -1 -1 -1 -2 -2 -2 -2 -2 -2 -2 -2 -3 -3 -3 -3 -4 -4 -4 -4 -5 -5 -5 -5 -5 -5 -5 -5 -5 -5 -5 -5 -5 -6
3 3 3 3 2 2 2 2 2 2 2 1 1 1 1 1 0 0 0 0 0 -0 -0 -0 -0 -1 -1 -1 -1 -1 -1 -1 -2 -2 -2 -2 -2 -2 -2 -2 -2 -2 -2 -2 -2 -2 -2 -3 -3 -3 -3 -4 -4 -4 -4 -5 -5 -5 -5 -5 -5 -5 -5 -5 -5 -5 -5 -5 -6
2 2 2 2 2 2 2 2 1 1 1 1 1 1 0 0 0 -0 -0 -0 -0 -0 -0 -0 -1 -1 -1 -1 -1 -1 -1 -2 -2 -2 -2 -2 -2 -2 -2 -2 -2 -2 -2 -2 -2 -3 -3 -3 -3 -3 -4 -4 -4 -4 -5 -5 -5 -5 -5 -5 -5 -5 -5 -5 -5 -5 -6 -6 -6
Height
1487 1487 1486 1485 1484 1483 1482 1481 1481 1480 1479 1478 1477 1477 1476 1475 1474 1472 1472 1471 1470 1468 1467 1466 1465 1464 1464 1463 1462 1462 1461 1460 1459 1458 1457 1457 1456 1456 1455 1455 1454 1453 1453 1452 1452 1452 1451 1451 1450 1449 1448 1447 1447 1447 1446 1446 1446 1446 1446 1446 1445 1445 1445 1445 1445 1445 1445 1446 1446
1486 1486 1485 1484 1483 1482 1481 1480 1479 1478 1477 1477 1476 1475 1474 1473 1472 1470 1469 1468 1467 1466 1465 1463 1462 1462 1461 1461 1460 1459 1458 1457 1456 1455 1455 1454 1453 1453 1452 1452 1451 1451 1450 1450 1450 1449 1449 1448 1447 1447 1446 1445 1444 1444 1443 1443 1443 1443 1443 1442 1442 1442 1442 1442 1441 1442 1442 1443 1443
1485 1484 1483 1483 1482 1481 1480 1479 1478 1477 1476 1475 1474 1473 1472 1471 1470 1468 1467 1466 1465 1464 1462 1461 1460 1459 1459 1458 1457 1456 1455 1454 1453 1452 1452 1451 1450 1450 1450 1449 1448 1448 1447 1447 1447 1447 1446 1446 1445 1444 1443 1442 1441 1441 1440 1440 1441 1441 1440 1439 1439 1440 1440 1439 1438 1439 1440 1440 1440
1483 1483 1482 1481 1480 1479 1478 1477 1476 1475 1474 1473 1472 1472 1470 1469 1468 1466 1465 1464 1463 1462 1460 1459 1458 1457 1456 1455 1454 1453 1452 1451 1451 1450 1449 1448 1447 1447 1447 1446 1446 1445 1445 1444 1444 1444 1443 1443 1442 1441 1440 1439 1438 1438 1437 1437 1438 1437 1437 1437 1437 1437 1436 1435 1435 1436 1437 1437 1437
1482 1481 1481 1480 1479 1478 1477 1476 1475 1474 1473 1472 1471 1470 1468 1467 1466 1464 1463 1462 1461 1459 1458 1457 1456 1455 1453 1452 1451 1450 1449 1448 1447 1447 1446 1445 1444 1444 1443 1443 1442 1442 1442 1442 1441 1441 1441 1440 1440 1438 1437 1436 1436 1435 1434 1435 1435 1434 1434 1433 1434 1433 1433 1432 1432 1433 1433 1433 1433
1481 1480 1479 1478 1477 1477 1476 1475 1474 1472 1472 1471 1469 1468 1467 1466 1464 1463 1461 1460 1459 1457 1457 1455 1454 1452 1451 1450 1449 1447 1447 1446 1445 1443 1442 1442 1441 1441 1440 1440 1439 1439 1439 1438 1438 1438 1438 1438 1437 1436 1434 1433 1432 1432 1432 1432 1432 1431 1431 1430 1430 1430 1430 1429 1429 1430 1430 1430 1430
1480 1479 1478 1477 1476 1475 1474 1473 1472 1471 1470 1469 1468 1467 1465 1464 1463 1461 1460 1458 1457 1456 1454 1453 1452 1450 1449 1447 1446 1445 1444 1442 1442 1441 1440 1439 1438 1437 1437 1436 1436 1436 1436 1435 1435 1435 1435 1435 1434 1433 1432 1431 1430 1429 1428 1429 1428 1428 1427 1427 1426 1426 1427 1426 1426 1427 1427 1427 1427
1478 1477 1477 1476 1475 1474 1473 1472 1471 1470 1468 1467 1466 1465 1463 1462 1461 1459 1458 1456 1455 1453 1452 1451 1449 1448 1447 1445 1444 1442 1441 1440 1438 1437 1437 1436 1435 1434 1434 1433 1433 1432 1432 1432 1432 1432 1431 1431 1431 1430 1428 1428 1427 1426 1425 1425 1425 1425 1424 1423 1423 1423 1423 1423 1423 1424 1424 1423 1423
1477 1476 1475 1474 1473 1472 1471 1470 1469 1468 1467 1466 1464 1463 1462 1460 1459 1457 1456 1454 1452 1451 1450 1448 1447 1445 1444 1442 1441 1440 1438 1437 1436 1435 1434 1433 1432 1431 1431 1430 1429 1429 1428 1428 1428 1428 1428 1428 1427 1426 1425 1424 1423 1423 1422 1422 1422 1422 1421 1421 1421 1421 1421 1420 1421 1421 1421 1421 1421
1475 1474 1473 1472 1472 1471 1469 1468 1467 1466 1465 1463 1462 1461 1460 1458 1457 1455 1453 1452 1450 1449 1447 1446 1444 1442 1441 1440 1438 1437 1436 1434 1433 1432 1431 1430 1429 1428 1427 1427 1426 1426 1425 1425 1425 1425 1425 1425 1424 1422 1422 1421 1421 1420 1420 1420 1419 1418 1418 1418 1418 1418 1418 1417 1417 1417 1417 1417 1417
1474 1473 1472 1471 1470 1468 1467 1466 1465 1464 1463 1462 1460 1459 1458 1456 1455 1453 1452 1450 1448 1446 1444 1443 1442 1440 1438 1437 1435 1434 1433 1432 1430 1429 1428 1427 1426 1425 1425 1424 1423 1422 1422 1422 1422 1422 1422 1421 1420 1419 1418 1418 1418 1417 1417 1417 1416 1416 1415 1415 1415 1415 1415 1415 1415 1415 1415 1415 1415
1472 1471 1470 1469 1468 1467 1466 1464 1463 1462 1461 1460 1458 1457 1456 1454 1453 1451 1449 1447 1445 1443 1442 1440 1439 1437 1435 1433 1432 1431 1430 1428 1427 1426 1425 1424 1423 1422 1422 1421 1420 1419 1419 1419 1419 1419 1418 1417 1417 1416 1415 1415 1415 1415 1415 1414 1414 1413 1412 1412 1412 1412 1412 1412 1412 1412 1412 1412 1412
1471 1470 1468 1467 1466 1465 1464 1463 1462 1460 1459 1458 1457 1455 1454 1452 1451 1449 1447 1445 1443 1441 1439 1437 1436 1434 1432 1430 1429 1427 1427 1425 1424 1423 1422 1421 1420 1419 1418 1417 1417 1416 1416 1416 1416 1416 1415 1414 1413 1413 1412 1412 1412 1412 1412 1412 1411 1410 1410 1409 1409 1409 1409 1408 1409 1409 1409 1409 1409
1469 1468 1467 1466 1465 1463 1462 1461 1460 1458 1457 1456 1454 1453 1451 1450 1448 1447 1445 1442 1440 1438 1437 1435 1433 1431 1429 1427 1426 1424 1423 1422 1421 1420 1419 1417 1417 1416 1415 1414 1414 1413 1413 1412 1412 1412 1412 1411 1410 1410 1410 1409 1409 1409 1409 1409 1408 1407 1407 1407 1406 1406 1406 1406 1407 1407 1407 1407 1406
1467 1466 1465 1464 1463 1462 1460 1459 1457 1456 1455 1453 1452 1450 1449 1447 1445 1444 1442 1440 1437 1436 1434 1432 1430 1428 1426 1425 1422 1421 1420 1419 1417 1417 1415 1414 1413 1413 1412 1411 1411 1410 1410 1409 1409 1409 1408 1407 1407 1407 1407 1406 1406 1406 1406 1406 1405 1405 1404 1404 1403 1403 1403 1403 1404 1404 1404 1403 1403
1465 1464 1463 1462 1461 1459 1458 1457 1455 1454 1452 1451 1449 1448 1446 1444 1442 1441 1439 1437 1435 1433 1431 1429 1427 1425 1423 1422 1420 1418 1417 1415 1414 1413 1412 1411 1410 1410 1409 1408 1407 1407 1407 1406 1406 1405 1405 1404 1404 1404 1403 1403 1403 1403 1403 1402 1402 1402 1401 1401 1401 1401 1401 1401 1401 1401 1401 1400 1400
1463 1462 1461 1460 1458 1457 1456 1454 1453 1451 1450 1448 1447 1445 1443 1442 1440 1438 1436 1434 1432 1430 1427 1426 1424 1422 1420 1418 1417 1415 1414 1412 1411 1410 1409 1408 1407 1407 1406 1405 1404 1404 1403 1403 1402 1402 1401 1401 1401 1401 1400 1400 1400 1400 1400 1399 1399 1398 1398 1398 1397 1397 1397 1398 1398 1398 1397 1397 1397
1461 1460 1459 1457 1456 1455 1453 1452 1451 1449 1447 1446 1444 1442 1441 1439 1437 1435 1433 1432 1429 1427 1425 1422 1421 1419 1417 1415 1413 1412 1411 1409 1408 1407 1406 1405 1404 1403 1403 1402 1401 1401 1400 1400 1399 1398 1398 1397 1397 1397 1397 1397 1397 1397 1397 1396 1396 1395 1395 1395 1394 1394 1394 1394 1394 1394 1394 1394 1394
1459 1458 1457 1455 1454 1452 1451 1450 1448 1447 1445 1443 1442 1440 1438 1437 1435 1432 1431 1429 1427 1425 1422 1420 1418 1416 1414 1412 1411 1409 1408 1407 1405 1403 1402 1402 1401 1400 1400 1399 1398 1398 1397 1397 1396 1395 1395 1394 1394 1394 1394 1394 1393 1393 1393 1393 1392 1392 1392 1392 1391 1391 1391 1391 1391 1391 1391 1391 1391
1457 1456 1454 1453 1452 1450 1449 1447 1446 1444 1442 1441 1439 1437 1435 1434 1432 1430 1428 1426 1424 1422 1420 1417 1415 1413 1411 1410 1408 1406 1405 1404 1402 1401 1400 1399 1398 1397 1397 1396 1395 1395 1394 1393 1392 1392 1391 1391 1391 1391 1391 1390 1390 1390 1390 1390 1389 1389 1388 1388 1388 1387 1387 1387 1387 1387 1388 1388 1388
1455 1453 1452 1451 1449 1447 1446 1445 1443 1441 1440 1438 1436 1434 1432 1431 1429 1427 1425 1423 1421 1419 1417 1415 1412 1410 1408 1407 1405 1403 1402 1401 1400 1398 1397 1396 1395 1394 1394 1393 1392 1392 1391 1390 1389 1388 1388 1388 1387 1387 1387 1387 1387 1386 1386 1386 1386 1386 1385 1385 1385 1384 1384 1384 1384 1384 1384 1384 1384
1452 1451 1450 1448 1447 1445 1444 1442 1440 1439 1437 1435 1433 1432 1430 1428 1426 1424 1422 1420 1418 1416 1414 1412 1410 1408 1406 1404 1402 1401 1399 1398 1397 1395 1394 1393 1392 1392 1391 1391 1390 1389 1388 1387 1386 1385 1385 1385 1384 1384 1384 1383 1383 1382 1382 1382 1382 1382 1382 1382 1381 1381 1381 1381 1381 1381 1381 1381 1381
1450 1449 1447 1446 1444 1443 1441 1439 1438 1436 1434 1432 1431 1429 1427 1425 1423 1421 1419 1417 1415 1413 1411 1409 1407 1405 1403 1402 1400 1398 1397 1395 1394 1392 1391 1390 1389 1389 1388 1387 1387 1386 1385 1384 1383 1382 1382 1382 1381 1381 1380 1380 1379 1379 1379 1379 1379 1378 1378 1378 1378 1377 1377 1377 1377 1377 1377 1377 1377
1448 1446 1445 1443 1442 1440 1438 1437 1435 1433 1432 1430 1428 1426 1424 1422 1420 1418 1416 1414 1412 1410 1408 1406 1404 1402 1401 1399 1397 1395 1394 1392 1391 1389 1388 1388 1387 1386 1385 1384 1384 1382 1382 1381 1380 1380 1379 1378 1378 1377 1377 1376 1376 1376 1375 1375 1375 1375 1374 1374 1374 1374 1374 1374 1373 1373 1373 1373 1373
1445 1444 1442 1441 1439 1437 1436 1434 1432 1430 1428 1427 1425 1423 1421 1419 1417 1415 1413 1411 1409 1407 1405 1403 1401 1399 1398 1396 1394 1392 1391 1389 1388 1387 1386 1385 1384 1383 1382 1381 1380 1379 1378 1378 1377 1377 1377 1376 1375 1374 1373 1373 1372 1372 1372 1372 1371 1371 1371 1371 1371 1370 1370 1370 1370 1369 1369 1369 1369
1443 1441 1440 1438 1437 1435 1433 1432 1430 1427 1426 1424 1422 1420 1418 1416 1414 1412 1410 1408 1406 1404 1402 1400 1398 1397 1395 1393 1391 1390 1388 1387 1385 1384 1383 1382 1381 1380 1379 1378 1377 1376 1376 1375 1375 1374 1374 1373 1372 1371 1370 1369 1369 1368 1368 1368 1367 1367 1367 1367 1367 1367 1366 1366 1365 1365 1365 1365 1366
1440 1439 1437 1436 1434 1432 1430 1429 1427 1425 1422 1421 1418 1417 1415 1413 1411 1409 1407 1405 1402 1401 1399 1397 1395 1394 1392 1390 1388 1387 1385 1384 1383 1381 1380 1379 1378 1377 1376 1375 1374 1373 1372 1372 1372 1372 1371 1370 1370 1369 1367 1366 1365 1364 1364 1364 1363 1364 1364 1363 1363 1363 1362 1362 1361 1361 1362 1362 1362
1438 1436 1435 1433 1431 1429 1427 1426 1424 1422 1420 1417 1415 1413 1412 1410 1408 1406 1404 1402 1399 1397 1396 1394 1392 1391 1389 1387 1386 1384 1383 1381 1380 1379 1377 1376 1375 1374 1373 1372 1371 1370 1370 1369 1369 1368 1368 1367 1367 1367 1366 1364 1362 1361 1360 1360 1360 1360 1360 1360 1359 1359 1359 1358 1358 1358 1358 1358 1359
1435 1434 1432 1430 1428 1426 1425 1423 1421 1419 1417 1414 1412 1410 1408 1407 1405 1403 1401 1398 1397 1395 1393 1391 1389 1388 1386 1384 1383 1381 1380 1379 1377 1376 1375 1373 1372 1371 1370 1369 1368 1367 1367 1367 1366 1365 1365 1364 1364 1363 1363 1363 1361 1359 1357 1356 1356 1356 1356 1355 1355 1355 1355 1355 1355 1355 1355 1355 1356
1433 1431 1429 1427 1425 1423 1422 1420 1418 1416 1413 1411 1409 1407 1405 1403 1401 1400 1397 1396 1394 1392 1390 1388 1387 1385 1383 1382 1380 1379 1377 1376 1375 1373 1372 1371 1369 1368 1367 1366 1365 1365 1364 1364 1363 1362 1362 1361 1361 1360 1360 1360 1360 1358 1356 1354 1353 1352 1352 1351 1351 1351 1351 1351 1352 1352 1352 1352 1352
1430 1428 1426 1424 1422 1420 1418 1416 1414 1412 1410 1408 1406 1404 1402 1400 1398 1396 1395 1393 1391 1389 1387 1386 1384 1382 1380 1379 1377 1376 1374 1373 1372 1371 1369 1368 1367 1365 1364 1363 1362 1362 1361 1361 1361 1360 1359 1358 1358 1357 1357 1357 1357 1356 1354 1352 1351 1349 1348 1348 1347 1347 1348 1348 1348 1348 1349 1349 1349
1427 1425 1423 1421 1419 1417 1415 1413 1411 1409 1407 1405 1402 1401 1398 1397 1395 1393 1392 1390 1388 1386 1384 1383 1381 1379 1377 1376 1375 1373 1372 1371 1369 1368 1367 1366 1364 1362 1362 1361 1360 1359 1358 1358 1357 1357 1356 1356 1355 1355 1354 1354 1354 1353 1352 1351 1349 1347 1346 1345 1345 1344 1345 1345 1345 1345 1345 1346 1346
1424 1422 1421 1418 1416 1414 1412 1409 1407 1405 1403 1401 1399 1397 1395 1393 1392 1390 1389 1387 1386 1384 1382 1380 1378 1377 1375 1373 1372 1371 1369 1368 1367 1365 1364 1363 1362 1360 1359 1357 1357 1356 1356 1355 1355 1354 1353 1353 1352 1352 1352 1351 1351 1350 1349 1348 1347 1346 1344 1343 1342 1342 1342 1342 1342 1342 1342 1342 1343
1422 1420 1417 1415 1413 1410 1408 1406 1404 1402 1400 1398 1396 1394 1392 1390 1388 1387 1386 1384 1383 1381 1379 1377 1376 1374 1372 1371 1370 1368 1367 1365 1364 1363 1362 1360 1359 1357 1356 1355 1354 1353 1353 1352 1352 1351 1350 1350 1349 1349 1348 1348 1348 1347 1346 1346 1345 1344 1342 1341 1340 1339 1339 1339 1339 1339 1339 1339 1340
1419 1417 1414 1412 1409 1407 1405 1402 1401 1399 1397 1395 1392 1391 1389 1387 1386 1384 1382 1381 1380 1378 1376 1374 1373 1372 1370 1368 1367 1366 1364 1362 1361 1360 1359 1358 1356 1355 1353 1352 1351 1351 1350 1350 1349 1348 1347 1347 1346 1346 1346 1345 1345 1344 1343 1342 1342 1341 1340 1338 1337 1337 1337 1337 1336 1336 1336 1336 1337
1416 1413 1411 1408 1406 1404 1402 1400 1398 1396 1394 1392 1390 1388 1386 1384 1383 1381 1380 1378 1377 1375 1373 1371 1370 1368 1367 1366 1364 1363 1362 1360 1359 1357 1356 1355 1354 1352 1350 1349 1348 1348 1347 1347 1346 1345 1344 1344 1343 1343 1342 1342 1341 1340 1340 1339 1338 1338 1337 1336 1335 1334 1334 1334 1334 1333 1333 1333 1333
1412 1410 1408 1405 1403 1401 1399 1397 1395 1393 1391 1389 1387 1385 1383 1381 1379 1378 1377 1376 1374 1372 1370 1368 1367 1366 1364 1363 1362 1360 1359 1358 1357 1355 1353 1352 1351 1350 1348 1346 1345 1345 1344 1344 1343 1342 1342 1341 1341 1340 1340 1339 1338 1337 1337 1336 1335 1334 1334 1333 1332 1332 1331 1331 1331 1331 1331 1330 1330
1409 1407 1405 1402 1400 1398 1396 1394 1392 1390 1388 1386 1384 1382 1380 1378 1377 1375 1374 1373 1371 1369 1367 1365 1364 1363 1362 1360 1359 1357 1356 1355 1354 1353 1351 1350 1349 1347 1346 1343 1342 1342 1341 1341 1341 1340 1339 1338 1338 1338 1337 1336 1335 1334 1333 1333 1332 1331 1331 1330 1330 1329 1329 1329 1328 1328 1327 1327 1327
1406 1404 1402 1400 1397 1396 1393 1392 1390 1387 1385 1383 1381 1379 1377 1376 1374 1372 1371 1370 1369 1367 1365 1363 1361 1360 1359 1358 1356 1355 1353 1352 1352 1351 1349 1347 1346 1345 1343 1341 1339 1338 1338 1338 1337 1337 1336 1335 1335 1335 1334 1334 1332 1332 1331 1330 1329 1328 1328 1327 1327 1327 1327 1326 1326 1325 1325 1324 1325
1403 1401 1399 1397 1395 1393 1391 1389 1387 1384 1382 1380 1378 1376 1374 1373 1371 1369 1368 1367 1366 1364 1362 1361 1359 1357 1357 1356 1354 1352 1350 1349 1348 1348 1347 1345 1343 1342 1341 1339 1337 1336 1335 1335 1334 1334 1333 1332 1332 1332 1331 1331 1330 1329 1328 1327 1327 1326 1325 1325 1325 1324 1324 1323 1323 1322 1322 1322 1322
1400 1398 1397 1395 1393 1391 1388 1386 1383 1381 1379 1377 1375 1373 1372 1370 1368 1367 1366 1364 1363 1362 1360 1358 1357 1355 1354 1353 1352 1350 1348 1346 1345 1344 1344 1342 1341 1340 1338 1337 1335 1333 1332 1332 1331 1331 1330 1329 1329 1329 1328 1328 1327 1326 1326 1325 1324 1323 1322 1322 1322 1322 1322 1321 1320 1320 1319 1319 1319
Wind_Speed
19 20 22 23 25 27 28 29 30 31 32 33 34 35 36 37 38 39 40 41 42 42 43 43 43 43 43 44 44 45 45 46 46 47 47 47 47 48 48 48 48 48 48 48 48 48 48 48 48 49 50 50 50 51 51 51 52 53 53 54 54 55 55 55 55 55 55 55 55
18 20 21 23 25 26 28 29 30 31 32 33 34 35 36 37 38 39 40 40 41 42 43 43 43 43 44 44 44 45 46 46 47 47 47 48 48 48 48 48 48 48 48 48 47 47 48 48 48 49 49 50 50 51 51 52 52 53 54 54 54 54 55 55 55 56 55 55 54
17 19 20 22 23 25 26 28 28 29 30 31 31 33 34 35 36 37 37 38 39 40 41 42 42 42 43 44 44 45 46 46 47 47 47 48 48 48 48 48 48 48 48 47 47 47 47 47 48 48 49 50 50 51 51 51 52 52 53 54 54 54 54 55 55 55 55 54 54
16 17 18 19 20 21 22 24 24 25 25 26 27 29 30 31 32 33 34 34 35 36 37 38 39 40 41 43 44 45 45 46 46 47 47 48 48 48 48 48 48 48 47 47 47 47 47 47 47 48 49 49 50 51 51 51 51 52 53 53 53 53 54 55 55 54 54 54 54
13 13 14 14 15 16 17 18 19 20 21 22 23 25 26 27 28 30 31 32 32 33 34 35 37 38 39 41 42 43 44 45 46 46 47 48 48 48 48 48 48 48 48 47 47 47 47 46 47 48 48 49 50 50 50 51 51 52 52 52 53 53 54 54 54 54 54 54 54
11 11 12 12 13 14 15 16 17 19 20 20 22 23 25 26 27 29 30 30 31 32 33 34 35 36 37 39 40 42 43 44 45 46 47 47 48 48 48 48 48 48 48 47 47 47 46 46 46 47 48 48 49 50 50 50 51 52 52 53 53 53 54 54 54 54 54 54 54
10 11 11 12 13 15 16 17 18 19 20 21 23 24 26 27 28 29 30 31 32 32 32 33 34 35 36 37 39 40 41 42 43 44 45 47 47 47 48 48 48 48 48 47 47 46 46 46 46 46 47 48 49 49 50 50 51 51 52 53 53 53 54 54 54 54 54 54 54
10 11 12 13 14 15 17 18 19 21 22 23 25 26 27 28 29 30 31 32 32 32 33 33 34 34 35 36 37 38 39 41 42 43 44 45 46 47 47 48 48 48 48 47 47 47 46 46 46 46 47 48 49 49 49 50 50 51 51 52 52 53 54 54 54 54 54 54 54
11 12 13 14 15 16 18 19 21 22 24 25 26 28 29 30 31 32 33 33 33 33 34 34 35 35 35 36 36 37 38 39 41 42 43 44 45 46 47 47 48 48 48 48 47 47 46 46 46 47 47 48 49 49 49 49 49 50 50 51 51 52 53 53 54 54 54 54 54
13 13 14 15 16 18 19 20 22 24 25 27 28 29 30 32 33 34 34 35 35 35 35 35 35 35 36 36 36 37 37 38 39 41 42 43 43 44 45 46 47 48 48 48 47 47 47 47 47 47 48 48 49 49 49 49 49 49 50 50 50 51 52 53 53 54 54 54 54
14 15 16 17 18 19 21 22 23 25 26 28 29 31 32 33 34 35 36 36 37 37 38 37 37 36 36 36 36 37 37 38 38 40 41 41 42 43 44 45 46 47 48 48 48 47 48 48 48 48 48 48 48 48 48 48 49 49 49 49 50 51 52 52 53 53 53 54 54
16 17 18 19 20 21 22 23 25 26 27 29 30 32 33 34 35 36 37 38 39 39 39 39 38 38 37 37 37 37 37 37 38 39 39 40 41 41 42 44 45 46 47 48 48 48 49 49 49 49 49 49 48 48 48 48 48 49 49 49 49 50 51 52 52 53 53 53 53
18 18 19 20 21 22 23 24 25 27 28 30 31 32 34 35 36 36 38 39 40 40 40 40 39 39 39 38 38 37 37 37 37 38 39 39 40 41 42 43 44 45 46 47 48 48 49 50 50 49 49 49 49 49 48 48 48 48 49 49 49 50 51 51 51 52 52 53 53
19 19 20 21 21 22 23 25 26 27 29 30 32 33 34 35 36 37 38 39 40 41 41 41 40 40 40 39 38 38 37 37 38 38 39 39 40 40 41 42 43 44 45 46 47 48 49 50 50 50 49 49 49 49 49 49 49 49 48 49 49 49 50 50 50 51 52 53 53
19 20 21 22 22 23 24 26 27 28 30 31 32 34 35 36 37 38 39 40 40 41 41 41 41 40 40 39 39 38 38 38 38 38 39 39 39 40 41 42 42 43 44 46 47 48 49 49 50 50 50 49 49 49 49 49 49 49 49 49 49 49 49 49 49 50 51 52 53
21 21 22 23 24 25 26 27 28 29 31 32 34 35 36 37 38 39 39 40 41 41 41 41 41 40 40 39 38 38 38 38 38 38 39 39 40 40 41 41 42 43 43 45 46 47 48 49 49 50 50 50 49 49 49 49 49 49 49 49 49 49 49 49 49 50 50 51 52
22 22 23 24 25 26 27 28 29 31 32 33 35 36 37 38 39 39 40 41 41 41 41 41 41 40 39 39 38 37 37 37 38 38 39 39 39 40 40 41 41 42 43 44 45 46 47 48 48 49 50 50 50 50 50 49 49 49 49 49 49 49 49 49 49 49 50 50 51
23 24 24 25 26 27 28 30 31 32 33 34 35 36 37 38 39 40 40 41 41 41 41 41 40 39 39 38 37 37 36 37 37 38 38 39 39 39 40 41 41 42 42 43 44 45 46 47 47 48 49 50 50 50 50 50 50 50 49 49 49 49 49 49 50 50 50 50 50
24 25 25 26 27 29 30 31 32 33 34 35 36 37 38 39 39 40 41 41 41 41 41 40 40 39 38 37 36 35 35 35 36 37 37 38 38 39 40 40 41 41 42 43 44 44 45 46 46 48 49 49 50 50 50 50 50 50 50 50 50 50 50 50 50 50 50 50 50
26 26 27 27 28 30 31 32 33 34 35 36 37 37 38 39 40 40 41 42 42 41 41 40 39 38 37 36 35 34 34 33 34 34 35 36 37 38 39 40 40 41 42 42 43 44 44 45 46 47 48 48 49 50 50 50 50 50 50 50 50 50 50 50 50 51 51 51 51
27 27 27 28 29 31 32 33 34 35 36 36 37 38 38 39 40 41 41 42 42 42 41 39 38 37 36 35 34 33 33 32 32 32 33 34 35 37 38 39 40 41 41 42 42 43 43 44 45 46 47 48 49 49 49 50 50 50 50 50 50 51 51 50 50 50 51 51 51
28 28 28 29 30 31 33 34 35 36 36 37 38 38 39 40 41 41 42 42 42 42 40 39 38 36 35 34 34 33 32 31 31 31 31 32 33 34 36 37 39 40 41 41 42 42 43 44 44 45 46 47 48 48 49 49 49 50 50 50 51 51 51 51 51 51 51 51 51
28 29 29 30 31 32 34 35 36 37 37 38 38 39 40 40 41 42 43 43 43 42 40 39 37 36 35 34 33 33 32 31 31 31 31 31 32 33 34 36 37 39 40 41 41 42 42 43 44 45 46 47 47 48 48 49 49 49 50 50 51 51 51 51 51 51 51 51 51
29 29 30 31 32 33 34 36 37 38 39 39 39 40 40 41 42 43 44 44 43 42 40 38 37 36 35 34 33 33 32 32 32 31 31 31 31 32 33 34 36 37 39 39 40 41 42 43 44 44 45 46 47 47 47 48 48 49 50 50 50 51 51 51 51 51 51 51 51
30 30 31 31 32 34 35 37 38 39 40 40 40 41 41 42 43 44 44 44 43 42 40 38 37 36 35 34 33 33 33 32 32 32 32 31 31 31 32 33 34 36 36 37 38 40 41 42 43 44 45 45 46 46 47 48 48 49 49 50 50 51 51 51 51 51 51 51 51
31 32 32 32 33 35 36 37 39 40 40 41 41 42 42 43 44 44 45 45 43 41 39 38 36 35 35 34 34 33 33 33 32 32 32 32 31 31 32 33 33 34 35 36 36 38 39 41 43 44 44 45 45 46 46 47 47 48 48 49 50 50 51 52 52 51 51 51 51
33 32 32 33 34 36 37 38 39 40 41 42 42 43 43 44 45 45 45 45 43 41 39 37 36 35 35 34 34 34 33 33 32 32 32 32 32 32 32 32 33 33 34 34 34 36 37 39 41 42 43 44 44 45 45 45 46 46 47 48 48 49 50 51 51 51 51 51 51
33 33 33 34 36 37 38 39 40 41 42 43 43 44 44 45 45 45 45 44 43 41 39 37 36 35 35 35 34 34 33 33 32 32 32 32 33 33 33 33 33 33 33 33 33 34 36 37 38 39 40 41 42 43 44 44 44 44 45 45 46 47 48 49 49 50 50 50 50
33 33 34 35 37 39 40 40 41 41 42 43 44 45 45 46 46 46 45 44 43 41 39 38 36 35 35 35 35 34 34 33 32 32 32 33 33 33 33 33 33 32 32 32 32 33 34 35 36 37 37 38 40 41 43 44 44 44 44 44 44 45 45 46 47 47 48 48 49
34 34 35 37 39 40 41 41 42 42 43 44 45 46 46 46 46 46 45 44 43 41 39 38 36 35 35 35 35 34 34 33 33 32 33 33 34 34 33 33 33 32 32 31 32 32 33 34 35 35 36 36 37 38 41 43 44 44 44 44 44 44 44 44 45 45 46 46 47
35 36 37 39 41 41 42 42 43 43 44 45 46 47 47 47 46 45 44 43 42 41 40 38 36 36 35 35 34 34 34 34 33 33 33 33 34 34 34 34 33 33 32 32 32 32 33 33 34 34 34 34 34 36 38 41 43 44 45 45 45 44 44 44 44 44 44 44 45
36 38 39 41 42 42 43 43 44 45 46 47 48 48 48 48 47 45 44 43 42 41 40 38 37 36 35 35 35 34 34 34 34 34 34 34 34 35 35 35 34 34 33 33 32 32 32 32 33 33 33 33 33 34 36 39 42 44 45 46 46 45 45 45 44 44 44 43 44
38 39 40 42 43 44 44 45 46 47 47 48 49 49 49 48 47 46 44 43 41 40 39 38 37 36 36 35 35 35 35 35 34 34 34 35 35 35 36 36 36 35 35 34 34 33 33 32 32 32 32 32 32 34 35 37 40 42 44 46 46 46 45 45 45 45 45 44 44
39 40 41 43 44 45 46 46 47 48 49 49 50 50 49 48 47 46 44 42 41 40 39 38 37 36 36 35 35 35 35 35 35 35 35 36 36 36 37 37 37 36 36 35 35 35 34 33 32 32 31 31 32 33 34 36 38 41 43 45 46 46 46 46 46 47 46 46 45
40 41 43 44 45 46 47 48 48 49 50 50 50 50 49 48 47 45 44 42 41 40 39 38 37 37 36 36 35 35 36 36 36 36 36 37 37 38 38 38 38 37 36 36 36 36 35 34 33 32 31 31 31 32 34 35 37 39 41 43 45 46 46 46 47 47 47 47 46
41 42 44 45 46 47 48 48 49 49 50 50 51 50 49 48 46 45 43 42 41 40 40 39 38 37 37 37 36 36 36 37 37 37 37 37 38 38 39 39 39 38 37 37 36 36 35 35 34 33 31 31 31 32 33 34 36 37 39 42 44 45 46 46 47 47 48 48 48
43 43 44 45 46 47 48 48 49 49 50 51 50 50 49 47 46 44 42 41 41 40 40 39 39 38 38 37 37 37 37 37 38 38 38 38 38 39 39 40 39 39 38 37 37 36 36 35 34 32 31 31 32 33 34 35 36 37 38 40 42 44 45 46 47 47 48 49 49
44 44 44 45 46 47 47 48 49 50 50 51 50 49 48 46 45 43 42 41 40 40 40 40 39 39 38 38 38 38 38 38 38 38 39 39 38 39 39 40 40 39 38 38 37 37 36 35 34 33 32 32 33 33 34 35 36 37 38 40 41 42 44 45 46 47 48 49 49
44 44 44 44 45 46 47 48 49 50 50 50 49 48 47 45 44 43 41 40 40 40 40 40 40 39 39 39 39 39 39 39 38 38 38 38 38 38 38 39 40 39 38 38 37 37 36 35 34 33 32 32 32 33 34 36 37 38 39 39 40 41 42 44 45 46 47 48 48
45 44 44 44 45 46 47 48 49 49 49 49 48 47 46 44 43 42 41 40 39 39 39 40 40 40 39 39 40 40 40 40 39 38 37 37 37 36 37 38 39 39 38 37 37 37 36 36 35 33 32 32 32 33 34 35 37 38 39 39 40 41 42 43 44 45 46 47 47
45 45 44 45 45 46 47 48 49 49 48 48 47 46 45 43 42 41 40 40 39 39 39 39 40 40 40 40 40 41 41 41 39 37 36 35 35 35 35 36 37 38 37 37 36 36 36 35 35 33 32 32 32 33 34 35 36 38 39 39 40 40 41 41 42 43 44 45 46
Wind_Direction
302 301 301 300 299 298 298 298 299 299 299 300 300 300 300 300 299 299 299 298 297 296 297 297 296 295 295 293 292 290 290 289 288 286 285 284 283 282 281 280 279 278 277 277 276 275 274 272 271 270 269 269 269 269 268 268 266 265 264 263 262 262 262 261 261 260 260 259 258
306 305 303 302 300 299 299 299 300 300 301 301 302 302 301 300 299 299 299 298 298 297 297 297 296 296 295 294 293 291 290 289 288 287 286 285 284 283 282 280 279 278 277 276 275 274 273 272 270 269 268 269 268 268 268 268 266 265 264 263 263 262 261 261 261 261 261 260 259
307 305 303 301 300 299 298 299 300 301 302 302 303 302 301 300 300 300 300 300 301 300 299 298 298 297 296 295 294 292 291 290 289 288 286 285 284 283 282 280 279 278 278 277 275 274 273 272 270 269 268 268 268 268 268 268 267 265 264 264 263 262 261 261 261 261 260 259 258
307 305 304 302 301 301 301 302 303 305 306 306 306 304 304 304 304 305 306 306 305 304 302 301 301 299 298 296 294 292 291 290 289 288 287 286 285 284 282 281 280 279 278 277 276 275 274 272 270 269 269 269 269 269 269 269 267 265 264 265 264 263 261 261 261 260 259 258 257
312 312 313 313 314 314 314 314 315 316 316 315 313 312 312 314 314 314 313 313 311 310 309 307 304 302 300 297 295 293 292 290 289 288 287 286 285 284 283 282 280 279 278 277 276 275 274 272 270 269 269 269 270 270 270 269 267 265 265 265 264 263 262 261 261 260 259 258 258
328 331 334 336 336 335 334 333 332 330 328 326 323 322 323 324 323 321 319 318 317 316 314 310 307 304 302 299 296 294 293 291 290 288 287 287 286 285 284 282 281 280 279 278 277 276 274 272 270 269 269 270 270 270 269 268 266 265 264 264 263 262 261 261 260 259 259 258 258
336 341 344 346 345 344 342 341 339 336 334 332 330 329 330 330 328 325 323 321 319 317 315 312 309 306 304 301 298 296 294 292 291 289 288 287 287 286 284 283 282 281 279 278 277 276 274 272 270 269 270 270 269 269 268 266 264 263 263 263 263 262 261 260 260 259 258 258 258
337 340 341 342 342 342 341 340 339 338 336 335 334 333 333 332 330 328 326 323 320 318 316 313 311 308 306 303 300 298 295 293 292 290 289 288 287 286 285 284 283 281 280 278 277 275 274 273 271 270 270 270 269 268 267 265 264 263 263 263 263 262 261 261 260 260 259 258 258
334 335 335 335 336 336 336 336 336 336 335 334 333 333 333 332 331 329 327 325 322 320 317 314 313 310 307 304 302 300 298 295 293 291 290 289 288 287 286 285 283 282 280 279 277 276 274 273 272 272 271 270 269 268 267 266 264 264 263 263 263 262 262 261 261 260 259 259 258
327 328 328 329 330 330 330 330 331 331 331 330 330 330 330 329 329 328 327 325 323 321 318 316 314 311 308 305 303 301 299 296 294 292 290 289 288 288 287 286 284 283 282 280 278 276 275 274 273 273 272 271 270 269 268 266 265 264 264 264 263 262 262 261 261 260 259 259 258
319 320 321 323 324 325 326 326 327 327 327 327 326 326 326 326 326 326 325 324 323 321 320 318 315 311 308 305 303 302 300 297 294 292 291 290 289 288 287 286 285 284 283 281 279 277 275 274 273 273 273 272 271 269 268 266 265 265 265 264 263 262 261 261 261 260 259 258 258
313 314 315 317 319 320 322 323 323 324 324 324 324 324 324 324 323 323 323 323 322 321 320 318 315 312 308 305 303 301 299 297 295 293 291 290 290 289 288 287 286 285 283 282 280 278 276 274 274 274 273 273 272 270 268 266 265 265 265 264 264 262 261 261 261 260 259 259 258
308 309 311 313 315 317 319 320 321 321 322 322 323 323 323 323 323 322 322 322 321 320 319 317 315 312 308 305 302 300 298 296 294 293 291 290 289 288 287 286 285 284 283 282 280 278 276 276 275 275 274 273 272 271 269 267 266 265 265 265 264 263 262 261 261 260 259 259 258
304 306 308 310 313 315 317 318 319 321 321 322 322 323 323 323 322 322 322 321 321 320 319 317 315 312 309 305 302 299 297 295 293 292 290 289 288 287 286 285 285 284 283 282 280 279 277 277 276 276 275 274 273 272 271 269 268 267 266 265 265 264 263 263 262 261 259 258 258
302 305 307 309 312 314 316 318 320 321 322 323 323 323 323 323 323 323 322 322 321 321 319 318 315 312 309 305 302 299 296 294 292 290 289 288 287 286 285 285 284 284 283 282 280 279 278 278 277 277 276 275 275 274 273 271 269 268 268 267 266 266 265 264 263 261 260 259 258
302 305 307 310 312 315 317 319 321 322 323 323 323 324 323 323 323 323 323 323 322 321 320 318 316 313 310 306 302 298 295 293 291 289 288 287 286 285 285 284 284 283 283 282 281 280 279 279 278 278 277 276 275 274 273 272 270 269 269 268 268 267 266 265 264 262 261 260 259
303 306 308 311 314 316 318 320 321 322 323 323 323 324 324 324 323 323 323 323 323 322 321 319 317 314 310 306 302 299 295 293 291 289 287 287 286 286 285 284 284 283 283 282 281 280 280 279 279 278 277 276 275 275 273 272 271 270 270 269 268 267 267 266 264 263 262 261 260
304 307 309 312 315 317 319 321 322 322 323 323 324 324 324 324 324 324 324 324 324 323 321 319 317 314 311 307 304 300 296 293 291 289 288 288 287 286 286 285 284 283 282 281 280 280 279 279 278 278 277 276 275 274 273 272 271 270 270 269 269 268 267 266 264 263 262 262 261
305 307 310 313 316 318 320 321 322 323 323 324 324 324 324 324 324 324 324 324 324 323 322 320 318 315 312 309 305 301 298 294 292 291 290 289 288 287 286 285 284 283 282 281 280 280 279 279 278 277 276 275 274 274 273 272 271 270 270 269 268 267 267 265 264 263 262 262 262
305 308 311 314 317 319 321 322 323 323 324 324 324 324 324 325 325 325 325 325 324 323 322 320 318 316 313 310 307 303 300 297 294 292 291 290 288 287 286 285 285 283 282 281 280 280 279 278 277 276 275 274 273 273 272 271 271 270 269 268 268 267 266 265 264 263 263 262 262
304 308 312 315 318 320 321 322 323 323 323 324 324 325 325 325 325 325 325 325 325 324 322 321 319 316 314 311 308 305 302 299 296 294 292 290 289 288 287 286 285 283 282 281 280 279 278 277 276 275 274 273 272 272 271 271 270 270 269 268 267 267 266 265 265 264 263 262 261
304 309 312 316 318 320 321 322 322 323 323 324 324 325 325 325 326 326 326 326 325 324 322 321 319 316 314 312 309 306 303 301 298 295 293 292 290 289 288 287 285 283 282 281 280 279 278 277 276 275 274 272 272 271 271 270 270 269 269 268 267 267 266 265 264 264 263 262 261
305 309 313 316 318 320 321 321 321 322 322 323 324 325 325 326 326 326 326 326 325 324 322 320 318 316 314 312 310 307 305 302 300 297 296 294 293 291 290 288 286 284 282 281 281 280 279 278 276 275 273 272 271 271 270 270 269 269 268 268 267 266 266 265 264 264 263 262 261
307 311 314 316 318 319 320 320 321 321 322 322 324 324 325 326 326 326 326 326 325 323 322 320 318 316 314 312 310 308 306 304 302 300 298 297 295 294 292 290 288 286 284 284 283 281 280 278 277 275 274 273 272 271 270 270 269 268 268 267 267 266 265 265 264 264 263 262 261
309 311 313 316 318 319 320 320 320 320 321 322 323 324 325 325 326 326 326 325 325 323 321 319 317 315 314 312 310 308 307 305 304 302 301 299 298 296 295 292 290 288 287 286 285 283 281 280 278 276 275 274 272 271 270 269 268 268 267 267 266 265 265 265 264 263 263 262 261
309 311 313 315 317 318 319 319 319 320 320 321 322 323 324 325 325 326 325 325 324 322 320 318 316 314 313 311 310 308 307 306 305 304 303 302 300 299 297 294 292 291 290 289 287 286 283 281 279 277 276 275 273 272 270 269 268 267 266 266 265 265 264 264 263 263 263 262 261
309 310 312 315 317 318 319 319 319 319 319 321 322 323 324 324 325 325 324 324 323 321 319 317 315 313 312 310 309 308 308 307 307 306 305 304 302 300 298 296 295 294 293 292 290 288 286 282 279 277 275 274 273 272 271 270 269 268 266 265 264 264 263 263 263 263 263 262 261
309 311 313 315 317 318 318 318 319 319 320 321 322 323 323 324 324 324 323 323 322 320 318 316 314 312 311 309 308 308 308 308 308 307 306 305 303 302 300 299 297 297 296 295 294 291 288 284 280 276 273 271 271 272 272 271 270 269 267 265 264 263 263 263 263 262 262 261 261
310 312 313 315 317 317 318 319 319 320 320 321 322 322 322 323 322 322 322 322 320 319 317 315 313 311 309 308 308 308 308 308 308 307 306 305 304 303 302 301 300 300 299 298 296 293 290 286 282 278 273 268 267 268 269 270 270 269 268 266 265 264 263 262 262 261 261 260 260
312 313 315 316 317 317 318 319 320 320 321 321 322 322 321 321 321 321 321 320 319 317 316 314 312 310 309 308 308 308 307 307 308 307 306 306 305 304 304 304 303 302 302 300 298 295 292 288 284 280 275 269 265 263 264 265 267 267 267 267 266 265 264 264 263 262 261 260 259
314 315 316 316 317 318 319 319 320 321 321 321 321 321 320 320 319 319 319 318 317 316 315 313 311 309 308 308 308 307 307 307 307 307 307 306 306 306 306 305 304 304 303 302 299 296 293 289 285 280 276 271 266 262 260 261 262 264 265 266 267 267 266 266 265 264 263 261 260
315 316 316 317 318 318 319 320 321 321 322 321 321 320 319 318 318 317 317 316 315 314 313 312 310 309 309 309 308 308 307 307 307 307 307 307 307 307 306 306 305 304 304 303 300 297 294 290 286 281 276 272 267 264 260 259 259 260 262 264 266 267 267 267 266 265 264 263 262
316 316 317 318 319 320 321 321 322 322 321 321 320 319 318 317 316 315 314 314 313 313 312 311 310 309 309 309 309 308 308 308 307 307 307 307 307 307 306 305 305 305 305 304 301 299 295 292 287 283 279 274 269 265 262 259 258 258 260 262 264 265 266 266 266 266 266 265 264
317 318 319 320 321 321 322 322 322 321 320 319 318 317 316 314 313 312 312 312 312 311 310 310 310 309 309 309 309 308 308 308 308 308 308 307 307 306 305 304 304 305 305 304 302 300 297 293 289 286 282 276 271 266 263 260 258 257 258 260 261 263 264 265 266 266 266 266 265
319 320 321 321 322 322 322 322 321 319 318 316 315 314 313 312 311 310 310 311 310 310 310 310 309 309 309 309 309 309 309 309 308 308 308 307 306 305 304 304 304 305 306 304 302 299 296 293 290 287 283 278 273 268 265 262 260 258 258 259 260 261 262 264 265 265 265 265 264
321 322 322 322 322 322 321 320 318 316 314 312 312 312 311 311 310 309 309 309 309 309 309 309 309 309 309 309 309 309 309 308 308 308 307 306 305 304 303 303 304 305 305 304 302 299 296 293 290 287 282 278 273 270 267 264 262 260 259 258 259 260 261 262 263 264 264 264 264
322 322 322 321 320 319 318 316 314 311 310 309 310 310 310 310 309 309 309 309 308 308 308 309 309 309 309 309 309 309 309 308 308 307 306 306 305 304 303 303 304 304 304 304 302 299 296 293 290 285 280 276 272 269 268 266 264 262 260 259 258 259 260 261 262 263 263 263 263
322 321 320 318 317 315 313 311 309 307 307 308 308 309 309 309 308 308 308 308 307 307 307 308 308 308 308 308 308 308 308 307 307 306 306 305 305 304 304 303 303 303 304 303 302 299 296 293 289 285 280 275 272 270 268 266 264 263 261 260 259 259 259 260 260 261 262 262 263
321 319 317 315 312 310 308 306 305 305 306 307 308 309 309 308 308 307 307 307 306 306 306 306 306 306 307 307 307 307 306 306 306 306 305 305 305 304 304 303 303 303 303 302 301 299 297 294 290 286 281 276 272 270 268 266 264 263 262 261 260 259 259 259 259 260 261 262 262
318 316 314 311 308 306 305 304 304 304 305 306 307 308 308 308 307 307 306 306 305 305 305 305 304 305 305 305 305 306 305 306 305 305 305 305 305 305 304 303 303 303 303 302 301 299 297 294 291 287 282 277 273 270 268 266 264 263 262 262 261 260 259 259 259 259 260 261 262
315 313 310 308 306 304 303 303 303 304 305 306 307 307 308 307 307 306 305 305 305 304 304 303 303 303 304 304 304 305 305 305 305 305 305 305 305 305 304 304 303 303 303 302 301 299 297 294 291 287 282 277 274 271 268 266 263 262 262 262 261 260 259 259 259 259 259 260 261